| time (UTC) | temp F | wind direction | speed MPH | gust MPH | rain 1hr in | rain 24hr in | rain mn in | humidity % | barometer mb |
| 20260505230556 | 80 | 235 | 4.0 | 9.0 | 0.00 | 0.00 | 0.00 | 62 | 1004.9 |
| 20260505230052 | 80 | 306 | 3.0 | 8.0 | 0.00 | 0.00 | 0.00 | 61 | 1004.5 |
| 20260505225549 | 81 | 292 | 3.0 | 7.0 | 0.00 | 0.00 | 0.00 | 60 | 1004.6 |
| 20260505225045 | 81 | 337 | 3.0 | 7.0 | 0.00 | 0.00 | 0.00 | 59 | 1004.8 |
| 20260505224542 | 82 | 198 | 2.0 | 8.0 | 0.00 | 0.00 | 0.00 | 58 | 1004.6 |
| 20260505224040 | 84 | 193 | 6.0 | 8.0 | 0.00 | 0.00 | 0.00 | 55 | 1004.4 |
| 20260505223537 | 84 | 58 | 2.0 | 7.0 | 0.00 | 0.00 | 0.00 | 53 | 1004.4 |
| 20260505223033 | 85 | 128 | 2.0 | 4.0 | 0.00 | 0.00 | 0.00 | 52 | 1004.4 |
| 20260505222529 | 85 | 354 | 4.0 | 4.0 | 0.00 | 0.00 | 0.00 | 51 | 1004.1 |
| 20260505222025 | 86 | 341 | 1.0 | 3.0 | 0.00 | 0.00 | 0.00 | 50 | 1004.0 |
| 20260505221523 | 86 | 59 | 3.0 | 6.0 | 0.00 | 0.00 | 0.00 | 50 | 1003.9 |
| 20260505221019 | 86 | 267 | 3.0 | 6.0 | 0.00 | 0.00 | 0.00 | 50 | 1003.8 |
| 20260505220516 | 87 | 0 | 3.0 | 6.0 | 0.00 | 0.00 | 0.00 | 50 | 1003.5 |
| 20260505220014 | 85 | 69 | 3.0 | 4.0 | 0.00 | 0.00 | 0.00 | 51 | 1003.8 |
| 20260505215512 | 86 | 315 | 4.0 | 9.0 | 0.00 | 0.00 | 0.00 | 51 | 1003.7 |
| 20260505215009 | 87 | 255 | 2.0 | 8.0 | 0.00 | 0.00 | 0.00 | 53 | 1003.9 |
| 20260505214508 | 87 | 156 | 5.0 | 11.0 | 0.00 | 0.00 | 0.00 | 54 | 1003.8 |
| 20260505214004 | 87 | 9 | 5.0 | 8.0 | 0.00 | 0.00 | 0.00 | 57 | 1003.9 |
| 20260505213502 | 88 | 175 | 4.0 | 13.0 | 0.00 | 0.00 | 0.00 | 57 | 1003.8 |
| 20260505212958 | 89 | 256 | 6.0 | 8.0 | 0.00 | 0.00 | 0.00 | 55 | 1003.9 |
| 20260505212455 | 88 | 236 | 7.0 | 10.0 | 0.00 | 0.00 | 0.00 | 56 | 1003.9 |
| 20260505211951 | 88 | 264 | 5.0 | 9.0 | 0.00 | 0.00 | 0.00 | 57 | 1004.1 |
| 20260505211449 | 89 | 224 | 4.0 | 7.0 | 0.00 | 0.00 | 0.00 | 58 | 1004.1 |
| 20260505210945 | 88 | 202 | 2.0 | 8.0 | 0.00 | 0.00 | 0.00 | 57 | 1004.3 |
| 20260505210442 | 89 | 255 | 7.0 | 11.0 | 0.00 | 0.00 | 0.00 | 57 | 1004.3 |
| 20260505205939 | 89 | 267 | 3.0 | 7.0 | 0.00 | 0.00 | 0.00 | 58 | 1004.1 |
| 20260505205438 | 87 | 20 | 4.0 | 9.0 | 0.00 | 0.00 | 0.00 | 59 | 1004.4 |
| 20260505204933 | 86 | 288 | 5.0 | 9.0 | 0.00 | 0.00 | 0.00 | 60 | 1004.1 |
| 20260505204432 | 87 | 315 | 5.0 | 8.0 | 0.00 | 0.00 | 0.00 | 59 | 1004.4 |
| 20260505203929 | 87 | 289 | 4.0 | 15.0 | 0.00 | 0.00 | 0.00 | 59 | 1004.0 |
| 20260505203425 | 86 | 315 | 5.0 | 9.0 | 0.00 | 0.00 | 0.00 | 60 | 1004.3 |
| 20260505202921 | 88 | 298 | 4.0 | 9.0 | 0.00 | 0.00 | 0.00 | 59 | 1004.4 |
| 20260505202418 | 86 | 287 | 4.0 | 10.0 | 0.00 | 0.00 | 0.00 | 61 | 1004.5 |
| 20260505201914 | 86 | 323 | 5.0 | 10.0 | 0.00 | 0.00 | 0.00 | 60 | 1004.5 |
| 20260505201411 | 86 | 180 | 6.0 | 10.0 | 0.00 | 0.00 | 0.00 | 60 | 1004.7 |
| 20260505200910 | 86 | 275 | 7.0 | 8.0 | 0.00 | 0.00 | 0.00 | 60 | 1004.5 |
| 20260505200407 | 85 | 245 | 5.0 | 14.0 | 0.00 | 0.00 | 0.00 | 60 | 1004.7 |
| 20260505195902 | 86 | 311 | 4.0 | 11.0 | 0.00 | 0.00 | 0.00 | 60 | 1004.5 |
| 20260505195359 | 87 | 275 | 3.0 | 8.0 | 0.00 | 0.00 | 0.00 | 59 | 1004.6 |
| 20260505194856 | 87 | 340 | 4.0 | 8.0 | 0.00 | 0.00 | 0.00 | 58 | 1004.5 |
| 20260505194354 | 86 | 320 | 2.0 | 14.0 | 0.00 | 0.00 | 0.00 | 60 | 1004.6 |
| 20260505193854 | 86 | 171 | 6.0 | 9.0 | 0.00 | 0.00 | 0.00 | 58 | 1004.6 |
| 20260505193353 | 86 | 255 | 4.0 | 9.0 | 0.00 | 0.00 | 0.00 | 59 | 1004.7 |
| 20260505192850 | 85 | 70 | 6.0 | 10.0 | 0.00 | 0.00 | 0.00 | 58 | 1004.6 |
| 20260505192348 | 87 | 195 | 8.0 | 9.0 | 0.00 | 0.00 | 0.00 | 55 | 1004.7 |
| 20260505191845 | 86 | 271 | 2.0 | 7.0 | 0.00 | 0.00 | 0.00 | 58 | 1004.6 |
| 20260505191344 | 86 | 219 | 7.0 | 10.0 | 0.00 | 0.00 | 0.00 | 57 | 1004.2 |
| 20260505190840 | 85 | 344 | 5.0 | 10.0 | 0.00 | 0.00 | 0.00 | 58 | 1004.3 |
| 20260505190336 | 86 | 290 | 4.0 | 9.0 | 0.00 | 0.00 | 0.00 | 60 | 1004.4 |
| 20260505185831 | 85 | 324 | 5.0 | 13.0 | 0.00 | 0.00 | 0.00 | 60 | 1004.3 |
| 20260505185328 | 85 | 222 | 5.0 | 14.0 | 0.00 | 0.00 | 0.00 | 60 | 1004.5 |
| 20260505184824 | 84 | 306 | 4.0 | 9.0 | 0.00 | 0.00 | 0.00 | 61 | 1004.5 |
| 20260505184321 | 84 | 301 | 9.0 | 13.0 | 0.00 | 0.00 | 0.00 | 61 | 1004.4 |
| 20260505183818 | 84 | 4 | 6.0 | 9.0 | 0.00 | 0.00 | 0.00 | 62 | 1004.6 |
| 20260505183315 | 84 | 34 | 4.0 | 11.0 | 0.00 | 0.00 | 0.00 | 62 | 1004.6 |
| 20260505182812 | 84 | 318 | 4.0 | 9.0 | 0.00 | 0.00 | 0.00 | 63 | 1004.4 |
| 20260505182309 | 83 | 233 | 6.0 | 13.0 | 0.00 | 0.00 | 0.00 | 63 | 1004.6 |
| 20260505181805 | 83 | 142 | 5.0 | 10.0 | 0.00 | 0.00 | 0.00 | 64 | 1004.7 |
| 20260505181303 | 83 | 334 | 6.0 | 8.0 | 0.00 | 0.00 | 0.00 | 64 | 1004.6 |
| 20260505180759 | 83 | 330 | 7.0 | 13.0 | 0.00 | 0.00 | 0.00 | 63 | 1004.6 |
| 20260505180256 | 84 | 347 | 4.0 | 11.0 | 0.00 | 0.00 | 0.00 | 64 | 1004.6 |
| 20260505175752 | 85 | 346 | 1.0 | 8.0 | 0.00 | 0.00 | 0.00 | 64 | 1004.5 |
| 20260505175249 | 83 | 305 | 6.0 | 11.0 | 0.00 | 0.00 | 0.00 | 67 | 1004.7 |
| 20260505174745 | 83 | 345 | 4.0 | 9.0 | 0.00 | 0.00 | 0.00 | 68 | 1004.6 |
| 20260505174243 | 83 | 259 | 2.0 | 8.0 | 0.00 | 0.00 | 0.00 | 67 | 1004.6 |
| 20260505173738 | 82 | 19 | 2.0 | 14.0 | 0.00 | 0.00 | 0.00 | 68 | 1004.5 |
| 20260505173235 | 82 | 53 | 4.0 | 14.0 | 0.00 | 0.00 | 0.00 | 68 | 1004.4 |
| 20260505172732 | 82 | 250 | 6.0 | 13.0 | 0.00 | 0.00 | 0.00 | 69 | 1004.5 |
| 20260505172229 | 82 | 276 | 3.0 | 7.0 | 0.00 | 0.00 | 0.00 | 69 | 1004.6 |
| 20260505171729 | 81 | 281 | 3.0 | 7.0 | 0.00 | 0.00 | 0.00 | 72 | 1004.3 |
| 20260505171226 | 79 | 358 | 8.0 | 13.0 | 0.00 | 0.00 | 0.00 | 73 | 1004.6 |
| 20260505170723 | 78 | 213 | 4.0 | 10.0 | 0.00 | 0.00 | 0.00 | 74 | 1004.6 |
| 20260505170220 | 78 | 40 | 1.0 | 9.0 | 0.00 | 0.00 | 0.00 | 75 | 1004.8 |
| 20260505165715 | 78 | 163 | 6.0 | 9.0 | 0.00 | 0.00 | 0.00 | 75 | 1004.4 |
| 20260505165212 | 78 | 333 | 1.0 | 8.0 | 0.00 | 0.00 | 0.00 | 75 | 1004.7 |
| 20260505164707 | 78 | 212 | 5.0 | 7.0 | 0.00 | 0.00 | 0.00 | 75 | 1004.4 |
| 20260505164204 | 78 | 25 | 5.0 | 8.0 | 0.00 | 0.00 | 0.00 | 75 | 1004.2 |
| 20260505163702 | 77 | 271 | 6.0 | 9.0 | 0.00 | 0.00 | 0.00 | 75 | 1005.2 |
| 20260505163201 | 77 | 238 | 4.0 | 10.0 | 0.00 | 0.00 | 0.00 | 75 | 1004.5 |
| 20260505162658 | 77 | 272 | 3.0 | 10.0 | 0.00 | 0.00 | 0.00 | 75 | 1004.4 |
| 20260505162155 | 78 | 354 | 4.0 | 9.0 | 0.00 | 0.00 | 0.00 | 75 | 1005.0 |
| 20260505161652 | 78 | 158 | 8.0 | 13.0 | 0.00 | 0.00 | 0.00 | 74 | 1004.6 |
| 20260505161149 | 78 | 312 | 4.0 | 13.0 | 0.00 | 0.00 | 0.00 | 74 | 1004.3 |
| 20260505160647 | 78 | 277 | 5.0 | 16.0 | 0.00 | 0.00 | 0.00 | 73 | 1004.5 |
| 20260505160144 | 78 | 239 | 4.0 | 10.0 | 0.00 | 0.00 | 0.00 | 74 | 1004.3 |
| 20260505153124 | 77 | 351 | 9.0 | 14.0 | 0.00 | 0.00 | 0.00 | 76 | 1004.1 |
| 20260505152620 | 76 | 334 | 4.0 | 14.0 | 0.00 | 0.00 | 0.00 | 76 | 1004.3 |
| 20260505152116 | 77 | 220 | 7.0 | 9.0 | 0.00 | 0.00 | 0.00 | 75 | 1004.2 |
| 20260505151611 | 77 | 279 | 4.0 | 14.0 | 0.00 | 0.00 | 0.00 | 76 | 1004.3 |
| 20260505151109 | 76 | 276 | 8.0 | 9.0 | 0.00 | 0.00 | 0.00 | 76 | 1004.5 |
| 20260505150605 | 76 | 234 | 8.0 | 11.0 | 0.00 | 0.00 | 0.00 | 77 | 1004.6 |
| 20260505140530 | 74 | 278 | 4.0 | 14.0 | 0.00 | 0.00 | 0.00 | 80 | 1004.3 |
| 20260505124943 | 73 | 255 | 2.0 | 10.0 | 0.00 | 0.00 | 0.00 | 83 | 1004.2 |
| 20260505124440 | 72 | 253 | 4.0 | 10.0 | 0.00 | 0.00 | 0.00 | 83 | 1003.9 |
| 20260505123937 | 72 | 88 | 4.0 | 13.0 | 0.00 | 0.00 | 0.00 | 83 | 1003.7 |
| 20260505123433 | 72 | 333 | 2.0 | 10.0 | 0.00 | 0.00 | 0.00 | 83 | 1003.7 |
| 20260505122929 | 72 | 346 | 4.0 | 9.0 | 0.00 | 0.00 | 0.00 | 84 | 1003.6 |
| 20260505122427 | 72 | 260 | 6.0 | 11.0 | 0.00 | 0.00 | 0.00 | 84 | 1003.9 |
| 20260505121923 | 72 | 317 | 3.0 | 10.0 | 0.00 | 0.00 | 0.00 | 84 | 1003.8 |
| 20260505121421 | 71 | 270 | 4.0 | 10.0 | 0.00 | 0.00 | 0.00 | 85 | 1003.7 |
| 20260505120916 | 71 | 319 | 2.0 | 8.0 | 0.00 | 0.00 | 0.00 | 85 | 1003.6 |
| 20260505120413 | 71 | 8 | 4.0 | 8.0 | 0.00 | 0.00 | 0.00 | 86 | 1003.6 |
| 20260505115912 | 71 | 257 | 2.0 | 6.0 | 0.00 | 0.00 | 0.00 | 86 | 1003.6 |
| 20260505115409 | 71 | 124 | 4.0 | 6.0 | 0.00 | 0.00 | 0.00 | 86 | 1003.8 |
| 20260505114907 | 71 | 230 | 6.0 | 10.0 | 0.00 | 0.00 | 0.00 | 86 | 1003.6 |
| 20260505114403 | 71 | 167 | 4.0 | 10.0 | 0.00 | 0.00 | 0.00 | 85 | 1003.6 |
| 20260505113859 | 71 | 150 | 2.0 | 9.0 | 0.00 | 0.00 | 0.00 | 85 | 1003.3 |
| 20260505113356 | 71 | 314 | 0.0 | 7.0 | 0.00 | 0.00 | 0.00 | 85 | 1003.5 |
| 20260505112851 | 71 | 322 | 1.0 | 8.0 | 0.00 | 0.00 | 0.00 | 85 | 1003.6 |
| 20260505112349 | 71 | 311 | 3.0 | 8.0 | 0.00 | 0.00 | 0.00 | 85 | 1003.5 |
| 20260505111845 | 71 | 142 | 2.0 | 13.0 | 0.00 | 0.00 | 0.00 | 85 | 1003.3 |
| 20260505111340 | 71 | 41 | 3.0 | 7.0 | 0.00 | 0.00 | 0.00 | 85 | 1003.3 |
| 20260505110836 | 71 | 2 | 3.0 | 6.0 | 0.00 | 0.00 | 0.00 | 85 | 1003.6 |
| 20260505110334 | 71 | 43 | 4.0 | 8.0 | 0.00 | 0.00 | 0.00 | 85 | 1003.3 |
| 20260505101809 | 71 | 296 | 1.0 | 4.0 | 0.00 | 0.00 | 0.00 | 85 | 1003.7 |
| 20260505101304 | 71 | 336 | 4.0 | 8.0 | 0.00 | 0.00 | 0.00 | 85 | 1003.7 |
| 20260505100800 | 71 | 289 | 3.0 | 8.0 | 0.00 | 0.00 | 0.00 | 85 | 1003.7 |
| 20260505100257 | 71 | 222 | 2.0 | 11.0 | 0.00 | 0.00 | 0.00 | 85 | 1003.7 |
| 20260505095753 | 71 | 301 | 3.0 | 8.0 | 0.00 | 0.00 | 0.00 | 86 | 1003.3 |
| 20260505095251 | 71 | 224 | 5.0 | 13.0 | 0.00 | 0.00 | 0.00 | 86 | 1003.5 |
| 20260505094746 | 70 | 301 | 1.0 | 4.0 | 0.00 | 0.00 | 0.00 | 86 | 1003.3 |
| 20260505094243 | 70 | 341 | 2.0 | 4.0 | 0.00 | 0.00 | 0.00 | 86 | 1003.6 |
| 20260505093739 | 70 | 186 | 4.0 | 9.0 | 0.00 | 0.00 | 0.00 | 86 | 1003.5 |
| 20260505093237 | 70 | 10 | 3.0 | 8.0 | 0.00 | 0.00 | 0.00 | 86 | 1003.7 |
| 20260505092733 | 70 | 216 | 4.0 | 6.0 | 0.00 | 0.00 | 0.00 | 86 | 1003.8 |
| 20260505092232 | 70 | 158 | 1.0 | 10.0 | 0.00 | 0.00 | 0.00 | 86 | 1003.9 |
| 20260505091729 | 70 | 102 | 2.0 | 8.0 | 0.00 | 0.00 | 0.00 | 86 | 1003.8 |
| 20260505091227 | 70 | 103 | 3.0 | 6.0 | 0.00 | 0.00 | 0.00 | 87 | 1003.9 |
| 20260505090724 | 70 | 131 | 1.0 | 6.0 | 0.00 | 0.00 | 0.00 | 87 | 1003.8 |
| 20260505090223 | 70 | 287 | 1.0 | 9.0 | 0.00 | 0.00 | 0.00 | 86 | 1003.8 |
| 20260505085719 | 70 | 225 | 3.0 | 11.0 | 0.00 | 0.00 | 0.00 | 86 | 1004.0 |
| 20260505085218 | 70 | 289 | 1.0 | 7.0 | 0.00 | 0.00 | 0.00 | 86 | 1003.9 |
| 20260505084714 | 70 | 295 | 3.0 | 9.0 | 0.00 | 0.00 | 0.00 | 86 | 1003.7 |
| 20260505084214 | 70 | 139 | 5.0 | 9.0 | 0.00 | 0.00 | 0.00 | 86 | 1003.9 |
| 20260505083710 | 70 | 4 | 1.0 | 8.0 | 0.00 | 0.00 | 0.00 | 85 | 1003.7 |
| 20260505083207 | 70 | 277 | 1.0 | 7.0 | 0.00 | 0.00 | 0.00 | 85 | 1003.9 |
| 20260505082703 | 71 | 292 | 2.0 | 6.0 | 0.00 | 0.00 | 0.00 | 85 | 1004.0 |
| 20260505082200 | 71 | 309 | 2.0 | 7.0 | 0.00 | 0.00 | 0.00 | 84 | 1003.9 |
| 20260505081656 | 71 | 339 | 2.0 | 7.0 | 0.00 | 0.00 | 0.00 | 84 | 1003.9 |
| 20260505081154 | 71 | 108 | 4.0 | 9.0 | 0.00 | 0.00 | 0.00 | 84 | 1004.0 |
| 20260505080650 | 71 | 68 | 2.0 | 6.0 | 0.00 | 0.00 | 0.00 | 83 | 1004.2 |
| 20260505080146 | 71 | 314 | 4.0 | 7.0 | 0.00 | 0.00 | 0.00 | 83 | 1004.2 |
| 20260505075642 | 71 | 13 | 1.0 | 3.0 | 0.00 | 0.00 | 0.00 | 83 | 1004.0 |
| 20260505075139 | 71 | 30 | 1.0 | 6.0 | 0.00 | 0.00 | 0.00 | 82 | 1004.2 |
| 20260505074636 | 71 | 9 | 1.0 | 6.0 | 0.00 | 0.00 | 0.00 | 82 | 1004.5 |
| 20260505074133 | 71 | 280 | 3.0 | 4.0 | 0.00 | 0.00 | 0.00 | 81 | 1004.5 |
| 20260505073631 | 71 | 47 | 3.0 | 11.0 | 0.00 | 0.00 | 0.00 | 81 | 1004.3 |
| 20260505073129 | 71 | 83 | 4.0 | 8.0 | 0.00 | 0.00 | 0.00 | 81 | 1004.5 |
| 20260505072624 | 72 | 332 | 6.0 | 8.0 | 0.00 | 0.00 | 0.00 | 80 | 1004.7 |
| 20260505072121 | 72 | 336 | 6.0 | 9.0 | 0.00 | 0.00 | 0.00 | 80 | 1004.8 |
| 20260505071617 | 72 | 148 | 4.0 | 8.0 | 0.00 | 0.00 | 0.00 | 80 | 1004.6 |
| 20260505071115 | 72 | 12 | 5.0 | 9.0 | 0.00 | 0.00 | 0.00 | 80 | 1004.6 |
| 20260505070612 | 72 | 207 | 5.0 | 8.0 | 0.00 | 0.00 | 0.00 | 79 | 1004.8 |
| 20260505070108 | 72 | 252 | 2.0 | 7.0 | 0.00 | 0.00 | 0.00 | 79 | 1004.7 |
| 20260505065604 | 72 | 240 | 6.0 | 10.0 | 0.00 | 0.00 | 0.00 | 79 | 1004.8 |
| 20260505065101 | 72 | 26 | 3.0 | 9.0 | 0.00 | 0.00 | 0.00 | 79 | 1004.8 |
| 20260505064557 | 72 | 57 | 1.0 | 8.0 | 0.00 | 0.00 | 0.00 | 78 | 1004.8 |
| 20260505064056 | 72 | 1 | 4.0 | 13.0 | 0.00 | 0.00 | 0.00 | 78 | 1005.2 |
| 20260505063553 | 72 | 226 | 5.0 | 13.0 | 0.00 | 0.00 | 0.00 | 78 | 1005.2 |
| 20260505063048 | 72 | 7 | 3.0 | 8.0 | 0.00 | 0.00 | 0.00 | 78 | 1004.9 |
| 20260505062545 | 72 | 251 | 3.0 | 8.0 | 0.00 | 0.00 | 0.00 | 78 | 1005.0 |
| 20260505062043 | 72 | 245 | 2.0 | 8.0 | 0.00 | 0.00 | 0.00 | 78 | 1005.1 |
| 20260505061540 | 72 | 14 | 3.0 | 9.0 | 0.00 | 0.00 | 0.00 | 77 | 1005.1 |
| 20260505061038 | 72 | 215 | 6.0 | 10.0 | 0.00 | 0.00 | 0.00 | 77 | 1005.0 |
| 20260505060535 | 72 | 71 | 7.0 | 9.0 | 0.00 | 0.00 | 0.00 | 77 | 1004.9 |
| 20260505060031 | 72 | 321 | 3.0 | 7.0 | 0.00 | 0.00 | 0.00 | 77 | 1004.9 |
| 20260505055527 | 72 | 229 | 4.0 | 7.0 | 0.00 | 0.00 | 0.00 | 77 | 1005.0 |
| 20260505055024 | 72 | 251 | 3.0 | 7.0 | 0.00 | 0.00 | 0.00 | 77 | 1005.1 |
| 20260505054521 | 72 | 220 | 2.0 | 6.0 | 0.00 | 0.00 | 0.00 | 77 | 1005.1 |
| 20260505054019 | 72 | 108 | 4.0 | 7.0 | 0.00 | 0.00 | 0.00 | 77 | 1005.2 |
| 20260505053516 | 72 | 243 | 2.0 | 6.0 | 0.00 | 0.00 | 0.00 | 77 | 1005.1 |
| 20260505053013 | 72 | 242 | 3.0 | 6.0 | 0.00 | 0.00 | 0.00 | 77 | 1005.4 |
| 20260505052510 | 72 | 311 | 2.0 | 6.0 | 0.00 | 0.00 | 0.00 | 76 | 1005.3 |
| 20260505052007 | 72 | 301 | 4.0 | 8.0 | 0.00 | 0.00 | 0.00 | 77 | 1005.6 |
| 20260505051504 | 72 | 235 | 2.0 | 4.0 | 0.00 | 0.00 | 0.00 | 76 | 1005.7 |
| 20260505051003 | 72 | 96 | 2.0 | 8.0 | 0.00 | 0.00 | 0.00 | 76 | 1005.5 |
| 20260505050500 | 72 | 291 | 4.0 | 6.0 | 0.00 | 0.00 | 0.00 | 76 | 1005.6 |
| 20260505041428 | 73 | 196 | 2.0 | 7.0 | 0.00 | 0.00 | 0.00 | 74 | 1005.9 |
| 20260505040925 | 73 | 342 | 6.0 | 10.0 | 0.00 | 0.00 | 0.00 | 74 | 1005.7 |
| 20260505040422 | 73 | 152 | 3.0 | 9.0 | 0.00 | 0.00 | 0.00 | 74 | 1005.6 |
| 20260505035919 | 73 | 278 | 2.0 | 8.0 | 0.00 | 0.00 | 0.00 | 74 | 1005.9 |
| 20260505035415 | 73 | 245 | 2.0 | 7.0 | 0.00 | 0.00 | 0.00 | 74 | 1005.6 |
| 20260505034912 | 73 | 92 | 1.0 | 6.0 | 0.00 | 0.00 | 0.00 | 73 | 1005.7 |
| 20260505034409 | 73 | 126 | 3.0 | 7.0 | 0.00 | 0.00 | 0.00 | 73 | 1005.7 |
| 20260505033906 | 73 | 95 | 2.0 | 7.0 | 0.00 | 0.00 | 0.00 | 73 | 1005.8 |
| 20260505033403 | 73 | 249 | 4.0 | 8.0 | 0.00 | 0.00 | 0.00 | 73 | 1005.9 |
| 20260505032901 | 73 | 80 | 3.0 | 8.0 | 0.00 | 0.00 | 0.00 | 73 | 1006.1 |
| 20260505032357 | 73 | 98 | 4.0 | 7.0 | 0.00 | 0.00 | 0.00 | 72 | 1006.3 |
| 20260505031854 | 73 | 255 | 4.0 | 7.0 | 0.00 | 0.00 | 0.00 | 72 | 1006.0 |
| 20260505031351 | 73 | 315 | 4.0 | 9.0 | 0.00 | 0.00 | 0.00 | 72 | 1006.0 |
| 20260505030848 | 73 | 22 | 4.0 | 7.0 | 0.00 | 0.00 | 0.00 | 72 | 1006.0 |
| 20260505030344 | 73 | 23 | 2.0 | 9.0 | 0.00 | 0.00 | 0.00 | 72 | 1006.0 |
| 20260505025839 | 74 | 149 | 1.0 | 4.0 | 0.00 | 0.00 | 0.00 | 71 | 1005.9 |
| 20260505025337 | 74 | 184 | 3.0 | 6.0 | 0.00 | 0.00 | 0.00 | 71 | 1006.0 |
| 20260505024836 | 74 | 299 | 4.0 | 9.0 | 0.00 | 0.00 | 0.00 | 71 | 1005.9 |
| 20260505024333 | 74 | 288 | 2.0 | 6.0 | 0.00 | 0.00 | 0.00 | 71 | 1005.7 |
| 20260505023830 | 74 | 2 | 4.0 | 7.0 | 0.00 | 0.00 | 0.00 | 70 | 1005.9 |
| 20260505023327 | 74 | 323 | 2.0 | 4.0 | 0.00 | 0.00 | 0.00 | 70 | 1005.6 |
| 20260505022824 | 74 | 259 | 3.0 | 6.0 | 0.00 | 0.00 | 0.00 | 70 | 1005.7 |
| 20260505022321 | 74 | 209 | 2.0 | 13.0 | 0.00 | 0.00 | 0.00 | 69 | 1005.7 |
| 20260505021819 | 74 | 171 | 3.0 | 9.0 | 0.00 | 0.00 | 0.00 | 69 | 1005.5 |
| 20260505021315 | 74 | 329 | 4.0 | 9.0 | 0.00 | 0.00 | 0.00 | 69 | 1005.4 |
| 20260505020810 | 74 | 61 | 1.0 | 6.0 | 0.00 | 0.00 | 0.00 | 69 | 1005.6 |
| 20260505020307 | 74 | 281 | 2.0 | 7.0 | 0.00 | 0.00 | 0.00 | 69 | 1005.6 |
| 20260505015804 | 74 | 70 | 1.0 | 8.0 | 0.00 | 0.00 | 0.00 | 69 | 1005.5 |
| 20260505015300 | 75 | 252 | 6.0 | 10.0 | 0.00 | 0.00 | 0.00 | 68 | 1005.5 |
| 20260505014758 | 75 | 215 | 2.0 | 8.0 | 0.00 | 0.00 | 0.00 | 68 | 1005.5 |
| 20260505014255 | 75 | 150 | 3.0 | 8.0 | 0.00 | 0.00 | 0.00 | 68 | 1005.5 |
| 20260505013751 | 75 | 233 | 6.0 | 13.0 | 0.00 | 0.00 | 0.00 | 68 | 1005.4 |
| 20260505013248 | 75 | 243 | 4.0 | 7.0 | 0.00 | 0.00 | 0.00 | 68 | 1005.5 |
| 20260505012747 | 75 | 253 | 4.0 | 11.0 | 0.00 | 0.00 | 0.00 | 67 | 1005.6 |
| 20260505012244 | 75 | 277 | 5.0 | 8.0 | 0.00 | 0.00 | 0.00 | 67 | 1005.7 |
| 20260505011739 | 75 | 228 | 3.0 | 10.0 | 0.00 | 0.00 | 0.00 | 66 | 1005.3 |
| 20260505011237 | 76 | 263 | 5.0 | 8.0 | 0.00 | 0.00 | 0.00 | 65 | 1005.5 |
| 20260505010732 | 76 | 215 | 2.0 | 11.0 | 0.00 | 0.00 | 0.00 | 65 | 1005.6 |
| 20260505010229 | 76 | 231 | 5.0 | 8.0 | 0.00 | 0.00 | 0.00 | 65 | 1005.4 |
| 20260505005725 | 76 | 210 | 2.0 | 11.0 | 0.00 | 0.00 | 0.00 | 65 | 1005.5 |
| 20260505005222 | 76 | 225 | 4.0 | 10.0 | 0.00 | 0.00 | 0.00 | 64 | 1005.5 |
| 20260505004720 | 76 | 126 | 4.0 | 11.0 | 0.00 | 0.00 | 0.00 | 64 | 1005.5 |
| 20260505004216 | 77 | 6 | 4.0 | 9.0 | 0.00 | 0.00 | 0.00 | 64 | 1005.7 |
| 20260505003713 | 77 | 216 | 5.0 | 15.0 | 0.00 | 0.00 | 0.00 | 63 | 1005.7 |
| 20260505003211 | 77 | 87 | 4.0 | 8.0 | 0.00 | 0.00 | 0.00 | 63 | 1005.5 |
| 20260505002707 | 77 | 202 | 3.0 | 8.0 | 0.00 | 0.00 | 0.00 | 62 | 1005.7 |
| 20260505002205 | 78 | 281 | 3.0 | 8.0 | 0.00 | 0.00 | 0.00 | 62 | 1005.9 |
| 20260505001702 | 78 | 257 | 8.0 | 16.0 | 0.00 | 0.00 | 0.00 | 62 | 1005.7 |
| 20260505001159 | 78 | 108 | 3.0 | 11.0 | 0.00 | 0.00 | 0.00 | 61 | 1005.8 |
| 20260505000656 | 78 | 312 | 7.0 | 13.0 | 0.00 | 0.00 | 0.00 | 61 | 1005.7 |
| 20260505000154 | 78 | 49 | 3.0 | 15.0 | 0.00 | 0.00 | 0.00 | 61 | 1005.6 |
| 20260504235650 | 78 | 353 | 5.0 | 13.0 | 0.00 | 0.00 | 0.00 | 61 | 1005.6 |
| 20260504235146 | 78 | 176 | 4.0 | 10.0 | 0.00 | 0.00 | 0.00 | 61 | 1005.6 |
| 20260504234644 | 79 | 203 | 4.0 | 8.0 | 0.00 | 0.00 | 0.00 | 60 | 1005.7 |
| 20260504234141 | 79 | 325 | 5.0 | 10.0 | 0.00 | 0.00 | 0.00 | 61 | 1005.7 |
| 20260504233637 | 79 | 271 | 8.0 | 11.0 | 0.00 | 0.00 | 0.00 | 60 | 1005.8 |
| 20260504233133 | 79 | 259 | 7.0 | 10.0 | 0.00 | 0.00 | 0.00 | 59 | 1005.9 |
| 20260504232631 | 79 | 280 | 2.0 | 10.0 | 0.00 | 0.00 | 0.00 | 59 | 1005.9 |
| 20260504232127 | 80 | 342 | 3.0 | 16.0 | 0.00 | 0.00 | 0.00 | 58 | 1005.9 |
| 20260504231624 | 80 | 74 | 8.0 | 14.0 | 0.00 | 0.00 | 0.00 | 57 | 1006.3 |
| 20260504231120 | 80 | 325 | 6.0 | 9.0 | 0.00 | 0.00 | 0.00 | 58 | 1006.2 |